FW5443 Weather Reports


time (UTC)temp
C
wind
direction
speed
KPH
gust
KPH
rain 1hr
cm
rain 24hr
cm
rain mn
cm
humidity
%
barometer
mb
20230131234029 -2 0 1.6 6.4 0.00 0.00 0.00 54 1023.8
20230131233530 -2 352 1.6 8.0 0.00 0.00 0.00 53 1023.8
20230131233041 -2 49 0.0 9.7 0.00 0.00 0.00 53 1023.9
20230131232529 -2 51 1.6 9.7 0.00 0.00 0.00 53 1023.9
20230131232035 -2 51 3.2 8.0 0.00 0.00 0.00 53 1023.8
20230131231541 -2 48 1.6 9.7 0.00 0.00 0.00 53 1023.8
20230131231030 -2 333 1.6 16.1 0.00 0.00 0.00 53 1023.6
20230131230531 -2 360 3.2 16.1 0.00 0.00 0.00 53 1023.6
20230131230045 -2 35 1.6 6.4 0.00 0.00 0.00 53 1023.6
20230131225531 -2 42 1.6 12.9 0.00 0.00 0.00 53 1023.5
20230131225027 -2 17 3.2 12.9 0.00 0.00 0.00 52 1023.4
20230131224552 -1 5 1.6 9.7 0.00 0.00 0.00 53 1023.6
20230131224029 -1 69 1.6 9.7 0.00 0.00 0.00 52 1023.4
20230131223529 -1 44 3.2 12.9 0.00 0.00 0.00 52 1023.1
20230131223040 -1 309 3.2 12.9 0.00 0.00 0.00 53 1023.1
20230131222531 -1 37 3.2 8.0 0.00 0.00 0.00 52 1023.1
20230131222029 -1 0 1.6 9.7 0.00 0.00 0.00 52 1023.2
20230131221556 -1 5 3.2 9.7 0.00 0.00 0.00 52 1022.9
20230131221029 -1 0 1.6 12.9 0.00 0.00 0.00 52 1022.8
20230131220530 -1 31 1.6 12.9 0.00 0.00 0.00 51 1022.8
20230131220049 -1 38 3.2 12.9 0.00 0.00 0.00 52 1022.7
20230131215530 0 347 3.2 11.3 0.00 0.00 0.00 52 1022.5
20230131215030 0 355 3.2 12.9 0.00 0.00 0.00 51 1022.6
20230131214542 0 9 3.2 14.5 0.00 0.00 0.00 51 1022.5
20230131214029 0 39 3.2 14.5 0.00 0.00 0.00 51 1022.5
20230131213530 0 42 1.6 9.7 0.00 0.00 0.00 51 1022.6
20230131213052 0 39 3.2 9.7 0.00 0.00 0.00 50 1022.5
20230131212526 0 62 4.8 9.7 0.00 0.00 0.00 51 1022.5
20230131212029 0 54 1.6 14.5 0.00 0.00 0.00 51 1022.4
20230131211538 0 28 1.6 14.5 0.00 0.00 0.00 52 1022.5
20230131211030 0 28 3.2 14.5 0.00 0.00 0.00 52 1022.4
20230131210529 0 57 3.2 14.5 0.00 0.00 0.00 52 1022.3
20230131210108 0 5 1.6 14.5 0.00 0.00 0.00 52 1022.3
20230131205530 0 5 4.8 14.5 0.00 0.00 0.00 52 1022.1
20230131205030 0 26 3.2 9.7 0.00 0.00 0.00 53 1022.0
20230131204548 0 34 3.2 14.5 0.00 0.00 0.00 53 1021.9
20230131204029 0 48 3.2 19.3 0.00 0.00 0.00 53 1021.9
20230131203530 0 360 1.6 19.3 0.00 0.00 0.00 53 1021.9
20230131203045 0 15 3.2 9.7 0.00 0.00 0.00 54 1021.9
20230131202529 0 44 3.2 9.7 0.00 0.00 0.00 54 1022.0
20230131202032 0 26 1.6 9.7 0.00 0.00 0.00 55 1021.8
20230131201544 0 0 3.2 9.7 0.00 0.00 0.00 55 1021.8
20230131201029 0 346 3.2 19.3 0.00 0.00 0.00 55 1021.8
20230131200534 0 0 4.8 19.3 0.00 0.00 0.00 54 1021.7
20230131200039 0 74 3.2 14.5 0.00 0.00 0.00 56 1021.7
20230131195528 0 18 4.8 14.5 0.00 0.00 0.00 56 1021.8
20230131195027 0 22 3.2 19.3 0.00 0.00 0.00 56 1021.9
20230131194601 1 19 4.8 19.3 0.00 0.00 0.00 55 1021.8
20230131194029 1 338 3.2 19.3 0.00 0.00 0.00 55 1021.7
20230131193531 1 52 4.8 22.5 0.00 0.00 0.00 55 1021.8
20230131193044 1 56 3.2 22.5 0.00 0.00 0.00 53 1021.7
20230131192529 1 352 4.8 22.5 0.00 0.00 0.00 56 1021.8
20230131192029 1 352 3.2 19.3 0.00 0.00 0.00 55 1021.7
20230131191536 1 22 3.2 14.5 0.00 0.00 0.00 56 1021.6
20230131191028 1 17 4.8 14.5 0.00 0.00 0.00 55 1021.6
20230131190530 1 5 1.6 11.3 0.00 0.00 0.00 57 1021.5
20230131190041 1 5 3.2 9.7 0.00 0.00 0.00 57 1021.5
20230131185532 1 24 3.2 12.9 0.00 0.00 0.00 57 1021.4
20230131185026 1 44 4.8 12.9 0.00 0.00 0.00 57 1021.3
20230131184540 1 5 3.2 9.7 0.00 0.00 0.00 60 1021.4
20230131184030 1 314 1.6 27.4 0.00 0.00 0.00 58 1021.3
20230131183529 1 5 3.2 27.4 0.00 0.00 0.00 58 1021.5
20230131183036 1 65 6.4 27.4 0.00 0.00 0.00 57 1021.1
20230131182528 1 10 4.8 20.9 0.00 0.00 0.00 61 1021.1
20230131182029 1 28 4.8 16.1 0.00 0.00 0.00 57 1021.1
20230131181538 1 19 4.8 16.1 0.00 0.00 0.00 60 1021.2
20230131181027 1 360 4.8 17.7 0.00 0.00 0.00 60 1021.2
20230131180528 1 28 3.2 17.7 0.00 0.00 0.00 61 1021.3
20230131180043 1 352 4.8 17.7 0.00 0.00 0.00 62 1021.2
20230131175528 1 26 3.2 14.5 0.00 0.00 0.00 65 1021.3
20230131175028 0 70 4.8 14.5 0.00 0.00 0.00 63 1021.3
20230131174549 1 10 4.8 14.5 0.00 0.00 0.00 63 1021.2
20230131174027 1 49 1.6 14.5 0.00 0.00 0.00 64 1021.2
20230131173530 1 31 4.8 16.1 0.00 0.00 0.00 63 1021.4
20230131173041 1 349 3.2 16.1 0.00 0.00 0.00 61 1021.3
20230131172530 1 46 3.2 14.5 0.00 0.00 0.00 60 1021.2
20230131172029 1 5 4.8 14.5 0.00 0.00 0.00 60 1021.3
20230131171543 1 62 4.8 14.5 0.00 0.00 0.00 60 1021.3
20230131171032 2 25 6.4 14.5 0.00 0.00 0.00 59 1021.3
20230131170530 2 21 4.8 16.1 0.00 0.00 0.00 59 1021.4
20230131170105 2 28 6.4 16.1 0.00 0.00 0.00 60 1021.4
20230131165529 2 33 3.2 9.7 0.00 0.00 0.00 66 1021.3
20230131165028 2 16 3.2 12.9 0.00 0.00 0.00 67 1021.3
20230131164545 1 26 4.8 12.9 0.00 0.00 0.00 66 1021.5
20230131164028 1 39 4.8 12.9 0.00 0.00 0.00 66 1021.5
20230131163529 1 37 1.6 8.0 0.00 0.00 0.00 68 1021.7
20230131163046 1 306 3.2 14.5 0.00 0.00 0.00 68 1021.8
20230131162526 1 0 1.6 14.5 0.00 0.00 0.00 69 1021.9
20230131162026 1 0 3.2 12.9 0.00 0.00 0.00 69 1022.0
20230131161542 1 36 4.8 12.9 0.00 0.00 0.00 68 1022.0
20230131161029 1 17 4.8 12.9 0.00 0.00 0.00 68 1021.8
20230131160529 1 310 3.2 12.9 0.00 0.00 0.00 70 1021.9
20230131160044 1 347 4.8 14.5 0.00 0.00 0.00 70 1021.9
20230131155529 1 21 3.2 14.5 0.00 0.00 0.00 71 1021.9
20230131155029 1 9 4.8 14.5 0.00 0.00 0.00 74 1021.9
20230131154552 1 38 3.2 8.0 0.00 0.00 0.00 77 1021.9
20230131154028 1 303 1.6 4.8 0.00 0.00 0.00 77 1021.8
20230131153528 1 18 1.6 8.0 0.00 0.00 0.00 78 1021.8
20230131153038 1 322 1.6 8.0 0.00 0.00 0.00 77 1021.9
20230131152529 1 352 1.6 6.4 0.00 0.00 0.00 80 1021.7
20230131152027 0 40 1.6 4.8 0.00 0.00 0.00 82 1021.8
20230131151539 0 29 0.0 4.8 0.00 0.00 0.00 84 1021.7
20230131151029 0 19 0.0 4.8 0.00 0.00 0.00 87 1021.7
20230131150529 0 5 1.6 6.4 0.00 0.00 0.00 87 1021.6
20230131150037 0 174 1.6 6.4 0.00 0.00 0.00 87 1021.6
20230131145532 0 0 1.6 6.4 0.00 0.00 0.00 87 1021.5
20230131145029 0 41 0.0 4.8 0.00 0.00 0.00 87 1021.5
20230131144546 0 352 0.0 3.2 0.00 0.00 0.00 87 1021.3
20230131144031 0 0 0.0 4.8 0.00 0.00 0.00 87 1021.4
20230131143533 0 0 0.0 4.8 0.00 0.00 0.00 87 1021.3
20230131143041 0 341 0.0 3.2 0.00 0.00 0.00 87 1021.3
20230131142531 0 331 0.0 6.4 0.00 0.00 0.00 87 1021.4
20230131142028 0 5 0.0 6.4 0.00 0.00 0.00 87 1021.3
20230131141540 0 225 0.0 4.8 0.00 0.00 0.00 87 1021.3
20230131141030 0 71 0.0 4.8 0.00 0.00 0.00 87 1021.3
20230131140531 0 59 1.6 4.8 0.00 0.00 0.00 86 1021.2
20230131140035 0 0 0.0 3.2 0.00 0.00 0.00 86 1021.3
20230131135532 0 22 0.0 4.8 0.00 0.00 0.00 86 1021.3
20230131135030 0 0 1.6 4.8 0.00 0.00 0.00 86 1021.2
20230131134541 0 0 0.0 1.6 0.00 0.00 0.00 86 1021.3
20230131134029 0 0 0.0 1.6 0.00 0.00 0.00 86 1021.0
20230131133530 0 0 0.0 3.2 0.00 0.00 0.00 86 1020.9
20230131133047 0 0 0.0 3.2 0.00 0.00 0.00 86 1020.9
20230131132529 0 0 0.0 1.6 0.00 0.00 0.00 86 1021.0
20230131132031 0 0 0.0 1.6 0.00 0.00 0.00 86 1020.9
20230131131543 0 0 0.0 1.6 0.00 0.00 0.00 86 1020.9
20230131131029 0 19 0.0 1.6 0.00 0.00 0.00 86 1020.8
20230131130531 0 0 0.0 1.6 0.00 0.00 0.00 86 1020.9
20230131130059 0 0 0.0 1.6 0.00 0.00 0.00 86 1020.8
20230131125530 0 0 0.0 1.6 0.00 0.00 0.00 86 1020.8
20230131125030 0 0 0.0 3.2 0.00 0.00 0.00 86 1020.7
20230131124543 0 0 0.0 3.2 0.00 0.00 0.00 86 1020.8
20230131124031 0 0 0.0 3.2 0.00 0.00 0.00 86 1020.7
20230131123530 0 0 0.0 4.8 0.00 0.00 0.00 86 1020.7
20230131123055 0 0 0.0 4.8 0.00 0.00 0.00 86 1020.7
20230131122529 0 0 0.0 3.2 0.00 0.00 0.00 86 1020.6
20230131122031 0 0 0.0 3.2 0.00 0.00 0.00 86 1020.5
20230131121550 0 39 0.0 3.2 0.00 0.00 0.00 86 1020.4
20230131121029 0 0 1.6 3.2 0.00 0.00 0.00 86 1020.2
20230131120530 0 0 0.0 3.2 0.00 0.00 0.00 86 1020.4
20230131120039 0 0 0.0 4.8 0.00 0.00 0.00 86 1020.5
20230131115528 0 25 0.0 4.8 0.00 0.00 0.00 86 1020.4
20230131115029 0 32 0.0 4.8 0.00 0.00 0.00 85 1020.2
20230131114534 0 18 0.0 4.8 0.00 0.00 0.00 85 1020.2
20230131114030 0 0 0.0 4.8 0.00 0.00 0.00 85 1020.1
20230131113530 0 18 0.0 4.8 0.00 0.00 0.00 85 1019.9
20230131113041 0 0 0.0 8.0 0.00 0.00 0.00 85 1020.0
20230131112530 0 348 1.6 8.0 0.00 0.00 0.00 85 1020.0
20230131112036 0 31 1.6 8.0 0.00 0.00 0.00 85 1019.8
20230131111556 0 0 1.6 6.4 0.00 0.00 0.00 85 1019.7
20230131111033 0 46 1.6 6.4 0.00 0.00 0.00 85 1019.6
20230131110531 0 20 1.6 8.0 0.00 0.00 0.00 85 1019.7
20230131110034 0 69 3.2 8.0 0.00 0.00 0.00 85 1019.8
20230131105531 0 22 1.6 17.7 0.00 0.00 0.00 85 1019.7
20230131105029 0 35 0.0 17.7 0.00 0.00 0.00 85 1019.7
20230131104543 0 30 1.6 17.7 0.00 0.00 0.00 85 1019.4
20230131104035 0 325 1.6 4.8 0.00 0.00 0.00 85 1019.3
20230131103529 0 72 0.0 3.2 0.00 0.00 0.00 85 1019.2
20230131103043 0 334 0.0 4.8 0.00 0.00 0.00 85 1019.3
20230131102530 0 0 0.0 4.8 0.00 0.00 0.00 84 1019.1
20230131102030 0 22 0.0 1.6 0.00 0.00 0.00 84 1019.2
20230131101540 0 0 0.0 1.6 0.00 0.00 0.00 84 1019.1
20230131101030 0 0 0.0 1.6 0.00 0.00 0.00 84 1019.1
20230131100529 0 0 0.0 6.4 0.00 0.00 0.00 84 1018.7
20230131100039 0 42 1.6 6.4 0.00 0.00 0.00 84 1018.9
20230131095529 1 0 1.6 4.8 0.00 0.00 0.00 84 1018.9
20230131095028 1 0 0.0 4.8 0.00 0.00 0.00 84 1018.8
20230131094550 1 9 1.6 6.4 0.00 0.00 0.00 84 1019.2
20230131094028 1 0 0.0 6.4 0.00 0.00 0.00 84 1018.9
20230131093529 1 0 1.6 6.4 0.00 0.00 0.00 84 1018.6
20230131093050 1 5 1.6 4.8 0.00 0.00 0.00 84 1018.7
20230131092530 1 0 0.0 3.2 0.00 0.00 0.00 83 1018.7
20230131092028 1 42 0.0 4.8 0.00 0.00 0.00 83 1018.7
20230131091540 1 0 0.0 4.8 0.00 0.00 0.00 83 1018.5
20230131091029 1 22 1.6 4.8 0.00 0.00 0.00 83 1018.6
20230131090532 1 20 0.0 4.8 0.00 0.00 0.00 83 1018.5
20230131090048 1 19 1.6 4.8 0.00 0.00 0.00 83 1018.6
20230131085530 1 26 1.6 4.8 0.00 0.00 0.00 83 1018.5
20230131085031 1 30 0.0 4.8 0.00 0.00 0.00 83 1018.3
20230131084540 1 37 1.6 4.8 0.00 0.00 0.00 83 1018.5
20230131084031 1 10 0.0 4.8 0.00 0.00 0.00 83 1018.5
20230131083528 1 325 0.0 1.6 0.00 0.00 0.00 82 1018.3
20230131083036 1 0 0.0 1.6 0.00 0.00 0.00 82 1018.1
20230131082529 1 0 0.0 1.6 0.00 0.00 0.00 82 1018.1
20230131082031 2 325 0.0 1.6 0.00 0.00 0.00 82 1018.3
20230131081534 2 0 0.0 3.2 0.00 0.00 0.00 82 1018.5
20230131081029 2 0 0.0 3.2 0.00 0.00 0.00 82 1018.5
20230131080528 2 47 0.0 3.2 0.00 0.00 0.00 82 1018.4
20230131080035 2 0 0.0 3.2 0.00 0.00 0.00 82 1018.2
20230131075531 2 0 0.0 3.2 0.00 0.00 0.00 82 1018.2
20230131075030 2 47 0.0 3.2 0.00 0.00 0.00 82 1018.3
20230131074539 2 0 0.0 3.2 0.00 0.00 0.00 83 1018.5
20230131074027 2 0 0.0 4.8 0.00 0.00 0.00 83 1018.4
20230131073530 2 51 0.0 4.8 0.00 0.00 0.00 83 1018.5
20230131073056 2 51 0.0 4.8 0.00 0.00 0.00 83 1018.4
20230131072527 2 41 0.0 3.2 0.00 0.00 0.00 83 1018.3
20230131072028 2 41 0.0 3.2 0.00 0.00 0.00 83 1018.3
20230131071542 2 44 0.0 3.2 0.00 0.00 0.00 82 1018.2
20230131071029 2 0 0.0 3.2 0.00 0.00 0.00 82 1018.2
20230131070527 2 0 0.0 3.2 0.00 0.00 0.00 82 1018.0
20230131070046 2 44 0.0 3.2 0.00 0.00 0.00 82 1017.8
20230131065526 2 44 0.0 4.8 0.00 0.00 0.00 82 1017.8
20230131065031 2 0 0.0 4.8 0.00 0.00 0.00 82 1017.6
20230131064533 2 352 1.6 3.2 0.00 0.00 0.00 83 1017.8
20230131064030 2 13 0.0 4.8 0.00 0.00 0.00 83 1017.7
20230131063528 2 13 0.0 4.8 0.00 0.00 0.00 83 1017.7
20230131063048 2 0 0.0 4.8 0.00 0.00 0.00 83 1017.6
20230131062527 2 28 1.6 4.8 0.00 0.00 0.00 83 1017.8
20230131062033 2 0 0.0 6.4 0.00 0.00 0.00 83 1017.4
20230131061540 2 324 1.6 6.4 0.00 0.00 0.00 83 1017.4
20230131061030 2 34 1.6 4.8 0.00 0.00 0.00 83 1017.5
20230131060528 2 352 1.6 4.8 0.00 0.00 0.00 83 1017.5
20230131060155 2 36 1.6 4.8 0.00 0.00 0.00 83 1017.4
20230131055528 3 0 1.6 4.8 0.00 0.00 0.00 83 1017.3
20230131055029 3 32 0.0 4.8 0.00 0.00 0.00 83 1017.3
20230131054548 3 33 1.6 8.0 0.00 0.00 0.00 83 1017.2
20230131054029 3 352 0.0 8.0 0.00 0.00 0.00 83 1017.2
20230131053529 3 345 3.2 8.0 0.00 0.00 0.00 83 1017.3
20230131053035 3 47 1.6 6.4 0.00 0.00 0.00 83 1017.5
20230131052531 3 5 3.2 6.4 0.00 0.00 0.00 83 1017.6
20230131052029 3 57 1.6 8.0 0.00 0.00 0.00 83 1017.4
20230131051543 3 13 1.6 9.7 0.00 0.00 0.00 83 1017.5
20230131051029 3 37 1.6 9.7 0.00 0.00 0.00 83 1017.5
20230131050529 3 317 1.6 14.5 0.00 0.00 0.00 83 1017.5
20230131050109 3 15 3.2 14.5 0.00 0.00 0.00 84 1017.5
20230131045529 3 20 3.2 11.3 0.00 0.00 0.00 84 1017.9
20230131045030 3 37 1.6 9.7 0.00 0.00 0.00 84 1017.7
20230131044535 3 24 1.6 12.9 0.00 0.00 0.00 84 1017.7
20230131044029 3 5 3.2 12.9 0.00 0.00 0.00 84 1017.9
20230131043528 3 74 3.2 9.7 0.00 0.00 0.00 84 1018.0
20230131043043 3 36 3.2 8.0 0.00 0.00 0.00 84 1017.8
20230131042530 3 42 3.2 8.0 0.00 0.00 0.00 84 1017.8
20230131042029 3 53 1.6 8.0 0.00 0.00 0.00 83 1017.7
20230131041537 3 39 3.2 8.0 0.00 0.00 0.00 83 1017.4
20230131041029 3 23 1.6 6.4 0.00 0.00 0.00 83 1017.5
20230131040530 3 0 0.0 6.4 0.00 0.00 0.00 83 1017.5
20230131040037 3 32 1.6 6.4 0.00 0.00 0.00 83 1017.3
20230131035529 3 40 0.0 6.4 0.00 0.00 0.00 83 1017.5
20230131035029 3 40 1.6 6.4 0.00 0.00 0.00 83 1017.3
20230131034547 3 360 0.0 3.2 0.00 0.00 0.00 82 1017.5
20230131034033 3 0 1.6 3.2 0.00 0.00 0.00 82 1017.5
20230131033530 3 155 1.6 3.2 0.00 0.00 0.00 82 1017.4
20230131033044 3 155 0.0 1.6 0.00 0.00 0.00 81 1017.3
20230131032530 3 0 0.0 0.0 0.00 0.00 0.00 81 1017.1
20230131032029 3 0 0.0 1.6 0.00 0.00 0.00 81 1017.0
20230131031544 3 0 0.0 1.6 0.00 0.00 0.00 81 1017.1
20230131031029 3 0 0.0 1.6 0.00 0.00 0.00 81 1017.1
20230131030531 3 0 0.0 0.0 0.00 0.00 0.00 81 1017.0
20230131030053 3 0 0.0 0.0 0.00 0.00 0.00 81 1017.1
20230131025531 3 0 0.0 0.0 0.00 0.00 0.00 81 1017.1
20230131025029 3 0 0.0 1.6 0.00 0.00 0.00 81 1017.1
20230131024538 3 0 0.0 1.6 0.00 0.00 0.00 81 1017.2
20230131024030 3 0 0.0 1.6 0.00 0.00 0.00 81 1017.2
20230131023528 3 0 0.0 0.0 0.00 0.00 0.00 80 1017.3
20230131023031 3 0 0.0 0.0 0.00 0.00 0.00 81 1017.3
20230131022531 3 0 0.0 0.0 0.00 0.00 0.00 80 1017.4
20230131022027 3 0 0.0 1.6 0.00 0.00 0.00 80 1017.4
20230131021535 3 0 0.0 1.6 0.00 0.00 0.00 80 1017.4
20230131021027 3 0 0.0 0.0 0.00 0.00 0.00 80 1017.4
20230131020529 3 0 0.0 0.0 0.00 0.00 0.00 80 1017.5
20230131020043 3 0 0.0 0.0 0.00 0.00 0.00 80 1017.3
20230131015530 3 0 0.0 0.0 0.00 0.00 0.00 79 1017.3
20230131015030 3 0 0.0 0.0 0.00 0.00 0.00 79 1017.4
20230131014534 3 0 0.0 0.0 0.00 0.00 0.00 79 1017.4
20230131014029 3 0 0.0 0.0 0.00 0.00 0.00 79 1017.4
20230131013529 3 0 0.0 0.0 0.00 0.00 0.00 79 1017.4
20230131013045 3 0 0.0 0.0 0.00 0.00 0.00 79 1017.3
20230131012527 3 0 0.0 0.0 0.00 0.00 0.00 78 1017.5
20230131012030 3 0 0.0 0.0 0.00 0.00 0.00 78 1017.4
20230131011534 3 0 0.0 1.6 0.00 0.00 0.00 78 1017.3
20230131011030 3 0 0.0 1.6 0.00 0.00 0.00 77 1017.6
20230131010527 3 0 0.0 1.6 0.00 0.00 0.00 77 1017.6
20230131010044 3 0 0.0 1.6 0.00 0.00 0.00 77 1017.6
20230131005531 3 0 0.0 1.6 0.00 0.00 0.00 77 1017.8
20230131005029 3 0 0.0 0.0 0.00 0.00 0.00 77 1017.7
20230131004535 3 0 0.0 0.0 0.00 0.00 0.00 77 1017.9
20230131004031 4 0 0.0 0.0 0.00 0.00 0.00 77 1017.9
20230131003527 4 0 0.0 0.0 0.00 0.00 0.00 77 1017.9
20230131003031 4 0 0.0 0.0 0.00 0.00 0.00 77 1018.0
20230131002532 4 0 0.0 0.0 0.00 0.00 0.00 76 1017.9
20230131002028 4 0 0.0 0.0 0.00 0.00 0.00 76 1018.0
20230131001536 4 0 0.0 0.0 0.00 0.00 0.00 76 1017.9
20230131001029 4 0 0.0 0.0 0.00 0.00 0.00 76 1017.9
20230131000528 5 0 0.0 0.0 0.00 0.00 0.00 76 1017.7
20230131000037 5 0 0.0 0.0 0.00 0.00 0.00 76 1017.7
20230130235529 5 0 0.0 1.6 0.00 0.00 0.00 76 1017.8
20230130235027 5 0 0.0 1.6 0.00 0.00 0.00 76 1018.0
20230130234531 5 0 0.0 1.6 0.00 0.00 0.00 76 1017.9